Regional Weather Roundup
Issued by NWS

Home | Current Version | Previous Version | Text Only | Print | Product List | Glossary Off
Versions: 1 2 3 4 5 6 7 8 9 10 11 12 13 14 15 16 17 18 19 20 21 22 23 24 25 26 27 28 29 30 31 32 33 34 35 36 37 38 39 40 41 42 43 44 45 46 47 48 49 50

692
ASUS45 KSLC 291210
RWRUT

UTAH REGIONAL WEATHER ROUNDUP
NATIONAL WEATHER SERVICE SALT LAKE CITY UT
600 AM MDT THU SEP 29 2016

UTZ001>011-023>025-291300-

NORTHERN UTAH

CITY           SKY/WX    TMP DP  RH WIND       PRES   REMARKS
BRIGHAM CITY     N/A     57  52  82 CALM      30.19S
HILL AFB       PTCLDY    61  48  63 SE12      30.21S
LOGAN          CLOUDY    56  52  86 CALM      30.20R
OGDEN          CLOUDY    60  49  66 S7        30.19S
PROVO AIRPORT  MOCLDY    58  49  72 SE3       30.23S
SALT LAKE CITY MOCLDY    63  50  62 SE9       30.19R
VERNAL         PTCLDY    55  50  83 CALM      30.31R
WENDOVER       MOCLDY    61  46  59 NE8       30.17S
HEBER CITY     PTCLDY    48  43  81 CALM      30.27S
WEST JORDAN    PTCLDY    58  47  66 S7        30.22S

$$

UTZ012>022-026-027-291300-

SOUTHERN/CENTRAL UTAH

CITY           SKY/WX    TMP DP  RH WIND       PRES   REMARKS
BLANDING       CLOUDY    57  51  80 N6        30.44S
BRYCE CANYON   CLOUDY    47  45  93 W5        30.42F
CEDAR CITY     MOCLDY    57  46  66 S10       30.28S
DELTA          CLEAR     55  45  67 S8        30.24R
MILFORD        CLEAR     49  44  83 S9        30.25R
MOAB/CYNLANDS  LGT RAIN  63  56  78 SE5       30.30R
PRICE          MOCLDY    56  50  80 NE10      30.36S
ST GEORGE      MOSUNNY   66  50  55 E6        30.20S

$$

REGIONAL REPORTS     COLORADO/ARIZONA

CITY           SKY/WX    TMP DP  RH WIND       PRES   REMARKS
CRAIG, CO      CLOUDY    46  39  76 CALM      30.39S
GRAND JUNCTION LGT RAIN  62  47  57 N9        30.32R
RIFLE          CLOUDY    53  45  74 CALM      30.35R
MONTROSE       PTCLDY    56  40  55 SE8       30.39R
CORTEZ         LGT RAIN  55  52  89 S5        30.40R
PAGE, AZ       CLOUDY    61  58  90 S3        30.27S
GRAND CANYON   CLOUDY    55  50  83 E3        30.37S
KINGMAN        MOCLDY    69  47  45 SE16      30.16R
FLAGSTAFF      CLOUDY    51  51 100 CALM      30.41R

$$

REGIONAL REPORTS    NEVADA/IDAHO/WYOMING

CITY           SKY/WX    TMP DP  RH WIND       PRES   REMARKS
LAS VEGAS, NV  MOCLDY    73  50  44 SW5       30.09R
ELY            CLOUDY    53  43  68 SW9       30.30R
ELKO           CLOUDY    64  39  39 S8        30.17R
POCATELLO, ID  CLOUDY    55  48  77 S3        30.18R
EVANSTON, WY   CLOUDY    53  37  54 SE5       30.35F
ROCK SPRINGS   CLOUDY    56  40  55 CALM      30.36F

$$




USA.gov is the U.S. government's official web portal to all federal, state and local government web resources and services.